This is the latest recevied weather packets stored in our database for station/object VR2HK-13. If no packets are shown the sender has not sent any weather packets the latest 1 day(s).
| Time | Temp. | Humidity | Pressure | Rain* | Wind** | Luminosity | Snow |
|---|---|---|---|---|---|---|---|
| 1778043605 | 24.44° C | 79% | 1013.4 hPa | 1.02 mm | 3.13 m/s, 45° | - | - |
| 1778043305 | 24.44° C | 80% | 1013.4 hPa | 1.02 mm | 1.34 m/s, 334° | - | - |
| 1778043257 | 24.44° C | 79% | 1013.4 hPa | 1.02 mm | 1.34 m/s, 31° | - | - |
| 1778043006 | 23.89° C | 80% | 1013.5 hPa | 0.76 mm | 1.79 m/s, 40° | - | - |
| 1778042946 | 23.89° C | 81% | 1013.5 hPa | 0.76 mm | 0.45 m/s, 30° | - | - |
| 1778042705 | 23.89° C | 80% | 1013.6 hPa | 0.51 mm | 2.68 m/s, 74° | - | - |
| 1778042636 | 23.89° C | 80% | 1013.7 hPa | 0.51 mm | 2.24 m/s, 83° | - | - |
| 1778042405 | 23.89° C | 80% | 1013.6 hPa | 0.51 mm | 4.47 m/s, 188° | - | - |
| 1778042327 | 23.89° C | 81% | 1013.6 hPa | 0.51 mm | 3.13 m/s, 208° | - | - |
| 1778042105 | 23.89° C | 81% | 1013.6 hPa | 0.51 mm | 0.89 m/s, 195° | - | - |
| 1778042017 | 23.89° C | 81% | 1013.7 hPa | 0.51 mm | 0.45 m/s, 72° | - | - |
| 1778041806 | 23.89° C | 81% | 1013.7 hPa | 0.25 mm | 4.02 m/s, 44° | - | - |
| 1778041706 | 23.89° C | 81% | 1013.7 hPa | 0 mm | 2.24 m/s, 26° | - | - |
| 1778041505 | 23.89° C | 81% | 1013.7 hPa | 0 mm | 4.47 m/s, 360° | - | - |
| 1778041396 | 23.89° C | 81% | 1013.7 hPa | 0 mm | 0.45 m/s, 299° | - | - |
| 1778041205 | 23.89° C | 82% | 1013.8 hPa | 0 mm | 0.45 m/s, 224° | - | - |
| 1778041087 | 23.89° C | 82% | 1013.8 hPa | 0 mm | 0.89 m/s, 257° | - | - |
| 1778040905 | 23.33° C | 82% | 1013.8 hPa | 0 mm | 0.89 m/s, 292° | - | - |
| 1778040776 | 23.33° C | 82% | 1013.9 hPa | 0 mm | 0.45 m/s, 93° | - | - |
| 1778040605 | 23.33° C | 82% | 1014 hPa | 0 mm | 0.45 m/s, 201° | - | - |
| 1778040466 | 23.33° C | 82% | 1014 hPa | 0 mm | 0.89 m/s, 326° | - | - |
| 1778040305 | 23.33° C | 82% | 1014 hPa | 0 mm | 1.34 m/s, 225° | - | - |
| 1778040005 | 23.33° C | 82% | 1014 hPa | 0 mm | 0.89 m/s, 25° | - | - |
| 1778039847 | 23.33° C | 82% | 1014 hPa | 0 mm | 1.79 m/s, 39° | - | - |
| 1778039704 | 23.33° C | 82% | 1014 hPa | 0 mm | 0.45 m/s, 273° | - | - |
* Rain latest hour (hover to see other rain measurements)
** Current wind speed in m/s (hover to see current wind gust speed)